Change the Weather History Date:

Monday, November 5, 2012

  Actual Average Record
Temperature  
Mean Temperature 30 °F -  
Max Temperature 37 °F 48 °F 104 °F (2002)
Min Temperature 23 °F 31 °F 3 °F (1951)
Degree Days  
Heating Degree Days 35    
Moisture  
Dew Point 29 °F    
Average Humidity 91    
Maximum Humidity 100    
Minimum Humidity 81    
Precipitation  
Precipitation 0.00 in - - ()
Sea Level Pressure  
Sea Level Pressure 30.18 in    
Wind  
Wind Speed 2 mph (ENE)    
Max Wind Speed 12 mph    
Max Gust Speed -    
Visibility 10 miles    
Events      
Averages and records for this station are not official NWS values.
T = Trace of Precipitation, MM = Missing Value Source: NWS Daily Summary

Daily Weather History Graph

Daily Weather History Graph

Search for Another Location

Airport or City:

Trip Planner

Search our weather history database for the weather conditions in past years. The results will help you decide how hot, cold, wet, or windy it might be!

Date:

Astronomy

Nov. 05, 2012 Rise Set
Actual Time 6:33 AM CST 4:39 PM CST
Civil Twilight 6:03 AM CST 5:09 PM CST
Nautical Twilight 5:29 AM CST 5:42 PM CST
Astronomical Twilight 4:56 AM CST 6:16 PM CST
Moon 10:16 PM CST 11:52 AM CST
Length of Visible Light 11h 05m
Length of Day
10h 05m
Waning Gibbous, 62% of the Moon is Illuminated
Nov 5
Waning Gibbous
Nov 6
Last Quarter
Nov 13
New
Nov 20
First Quarter
Nov 28
Full

Hourly Weather History & Observations

Time (CST) Temp. Windchill Dew Point Humidity Pressure Visibility Wind Dir Wind Speed Gust Speed Precip Events Conditions
12:15 AM 26.6 °F - 24.8 °F 93% 30.21 in 10.0 mi Calm Calm - N/A   Clear
12:35 AM 26.6 °F - 23.0 °F 86% 30.21 in 10.0 mi Calm Calm - N/A   Clear
12:55 AM 26.6 °F - 23.0 °F 86% 30.21 in 10.0 mi Calm Calm - N/A   Clear
1:15 AM 26.6 °F - 23.0 °F 86% 30.21 in 10.0 mi Calm Calm - N/A   Clear
1:35 AM 26.6 °F - 24.8 °F 93% 30.21 in 10.0 mi Calm Calm - N/A   Clear
1:55 AM 28.4 °F - 24.8 °F 86% 30.21 in 10.0 mi Calm Calm - N/A   Clear
2:15 AM 24.8 °F - 23.0 °F 93% 30.21 in 10.0 mi Calm Calm - N/A   Clear
2:35 AM 26.6 °F - 24.8 °F 93% 30.21 in 10.0 mi Calm Calm - N/A   Clear
2:55 AM 23.0 °F - 21.2 °F 93% 30.20 in 10.0 mi Calm Calm - N/A   Clear
3:15 AM 23.0 °F - 23.0 °F 100% 30.21 in 10.0 mi Calm Calm - N/A   Clear
3:35 AM 23.0 °F 18.4 °F 23.0 °F 100% 30.20 in 10.0 mi WNW 3.5 mph - N/A   Clear
3:55 AM 24.8 °F 20.5 °F 23.0 °F 93% 30.21 in 10.0 mi West 3.5 mph - N/A   Clear
4:15 AM 26.6 °F - 23.0 °F 86% 30.21 in 10.0 mi Calm Calm - N/A   Scattered Clouds
4:35 AM 23.0 °F - 21.2 °F 93% 30.21 in 10.0 mi Calm Calm - N/A   Mostly Cloudy
5:45 AM 28.4 °F - 24.8 °F 86% 30.21 in 10.0 mi Calm Calm - N/A   Mostly Cloudy
6:45 AM 28.4 °F - 24.8 °F 86% 30.21 in 10.0 mi Calm Calm - N/A   Mostly Cloudy
7:46 AM 28.4 °F - 26.6 °F 93% 30.21 in 10.0 mi Calm Calm - N/A   Mostly Cloudy
8:45 AM 35.6 °F 29.9 °F 32.0 °F 87% 30.21 in 10.0 mi North 6.9 mph - N/A   Mostly Cloudy
9:45 AM 35.6 °F 30.7 °F 32.0 °F 87% 30.22 in 10.0 mi NNE 5.8 mph - N/A   Overcast
10:45 AM 35.6 °F 29.2 °F 33.8 °F 93% 30.21 in 7.0 mi NNE 8.1 mph - N/A   Light Drizzle
11:05 AM 35.6 °F 30.7 °F 33.8 °F 93% 30.21 in 10.0 mi NNE 5.8 mph - N/A   Overcast
1:45 PM 37.4 °F 30.8 °F 33.8 °F 87% 30.17 in 10.0 mi ENE 9.2 mph - N/A   Overcast
2:45 PM 37.4 °F 32.1 °F 33.8 °F 87% 30.17 in 10.0 mi East 6.9 mph - N/A   Overcast
3:45 PM 35.6 °F 27.5 °F 33.8 °F 93% 30.16 in 10.0 mi ENE 11.5 mph - N/A   Overcast
4:45 PM 35.6 °F 30.7 °F 33.8 °F 93% 30.17 in 10.0 mi East 5.8 mph - N/A   Overcast
5:45 PM 35.6 °F 31.7 °F 33.8 °F 93% 30.18 in 10.0 mi East 4.6 mph - N/A   Overcast
6:45 PM 35.6 °F 32.8 °F 32.0 °F 87% 30.18 in 10.0 mi East 3.5 mph - N/A   Overcast
7:45 PM 35.6 °F 31.7 °F 32.0 °F 87% 30.15 in 10.0 mi ESE 4.6 mph - N/A   Overcast
8:15 PM 33.8 °F - 32.0 °F 93% 30.15 in 10.0 mi Calm Calm - N/A   Overcast
8:35 PM 33.8 °F 30.8 °F 32.0 °F 93% 30.15 in 10.0 mi ENE 3.5 mph - N/A   Overcast
8:45 PM 35.6 °F - 33.8 °F 93% 30.16 in 10.0 mi Calm Calm - N/A   Overcast
8:55 PM 33.8 °F 30.8 °F 32.0 °F 93% 30.15 in 10.0 mi NNW 3.5 mph - N/A   Overcast
9:15 PM 33.8 °F - 32.0 °F 93% 30.15 in 10.0 mi Calm Calm - N/A   Overcast
9:35 PM 33.8 °F - 32.0 °F 93% 30.15 in 10.0 mi Calm Calm - N/A   Overcast
9:55 PM 33.8 °F - 32.0 °F 93% 30.14 in 10.0 mi Calm Calm - N/A   Overcast
10:15 PM 33.8 °F 30.8 °F 32.0 °F 93% 30.13 in 10.0 mi South 3.5 mph - N/A   Overcast
10:35 PM 33.8 °F 30.8 °F 32.0 °F 93% 30.13 in 10.0 mi SSW 3.5 mph - N/A   Overcast
10:55 PM 33.8 °F - 32.0 °F 93% 30.13 in 10.0 mi Calm Calm - N/A   Overcast
11:15 PM 33.8 °F 30.8 °F 30.2 °F 87% 30.13 in 10.0 mi SSW 3.5 mph - N/A   Overcast
11:35 PM 33.8 °F 30.8 °F 28.4 °F 81% 30.12 in 10.0 mi South 3.5 mph - N/A   Overcast
11:55 PM 33.8 °F 29.6 °F 28.4 °F 81% 30.11 in 10.0 mi SSE 4.6 mph - N/A   Overcast